Regional Weather Roundup
Issued by NWS Burlington, VT

Home | Current Version | Previous Version | Text Only | Print | Product List | Glossary On
Versions: 1 2 3 4 5 6 7 8 9 10 11 12 13 14 15 16 17 18 19 20 21 22 23 24 25 26 27 28 29 30 31 32 33 34 35 36 37 38 39 40 41 42 43 44 45 46 47 48 49 50
000
ASUS41 KBTV 281010
RWRBTV
VERMONT REGIONAL WEATHER ROUNDUP
NATIONAL WEATHER SERVICE BURLINGTON VT
600 AM EDT FRI AUG 28 2015

NOTE: "FAIR" INDICATES FEW OR NO CLOUDS BELOW 12,000 FEET WITH NO
SIGNIFICANT WEATHER AND/OR OBSTRUCTIONS TO VISIBILITY.

* THESE REPORTS ARE NOT UNDER NWS QUALITY CONTROL AND/OR DO NOT
  REPORT WEATHER SUCH AS PRECIPITATION AND FOG.

VTZ001>019-281100-
_____VERMONT_____


CITY           SKY/WX    TMP DP  RH WIND       PRES   REMARKS
BURLINGTON     PTCLDY    57  54  89 CALM      30.15R
MONTPELIER     CLEAR     49  48  97 CALM      30.18S
MORRISVILLE    CLEAR     53  50  89 CALM      30.16R
ST. JOHNSBURY*   N/A     54  52  93 MISG      30.13R
LYNDONVILLE*   FAIR      53  52  97 CALM      30.16R
MIDDLEBURY*    CLOUDY    55  55 100 CALM      30.16R
RUTLAND*       CLOUDY    52  45  76 SE5       30.19R
SPRINGFIELD    FOG       49  49 100 CALM      30.16R VSB 1/4
HIGHGATE*      FAIR      51  50  97 CALM      30.15R
NEWPORT*       FAIR      53  53  99 SW3       30.15R
BENNINGTON     MOCLDY    48  47  96 CALM      30.16S
SUTTON*          N/A     54 N/A N/A MISG        N/A

_____LAKE CHAMPLAIN_____


CITY           SKY/WX    TMP DP  RH WIND       PRES   REMARKS

$$

NYZ007-026>031-035-052-083-281100-
_____NORTHERN NEW YORK_____


CITY           SKY/WX    TMP DP  RH WIND       PRES   REMARKS
PLATTSBURGH    CLEAR     54  53  97 NW3       30.15R
SARANAC LAKE   FOG       45  44  97 CALM      30.17S VSB 3/4
MASSENA        FOG       52  51  97 S3        30.17R VSB 3/4
OGDENSBURG*    PTCLDY    54  54 100 CALM      30.16R FOG
POTSDAM*       CLOUDY    57  57 100 CALM      30.17R
WATERTOWN      MOCLDY    52  51  97 E5        30.16R
FT DRUM        CLEAR     51  50  97 S3        30.16R
ALBANY         MOCLDY    57  53  86 CALM      30.16R
GLENS FALLS    CLEAR     51  48  89 CALM      30.15S

$$
NHZ002-005-011-281100-
_____NEW HAMPSHIRE_____


CITY           SKY/WX    TMP DP  RH WIND       PRES   REMARKS
LEBANON        FOG       53  51  93 CALM      30.15R VSB 1/2
KEENE          CLOUDY    52  48  87 CALM      30.15S VSB 1/4
MT WASHINGTON  FOG       39  39 100 W37         N/A  VSB 1/16WCI  26
PLYMOUTH       FAIR      50  49  96 CALM      30.12R
WHITEFIELD     CLOUDY    54  51  90 CALM      30.14R

$$

_____REGIONAL QUEBEC LOCATIONS_____


CITY           SKY/WX    TMP DP  RH WIND       PRES   REMARKS
MONTREAL       PTCLDY    57  55  94 W7        30.13R
QUEBEC CITY    PTCLDY    52  50  93 W8        30.07S
SHERBROOKE     CLEAR     50  50 100 CALM      30.13R

_____REGIONAL ONTARIO LOCATIONS_____


CITY           SKY/WX    TMP DP  RH WIND       PRES   REMARKS
OTTAWA         PTCLDY    48  48 100 SW5       30.16S

______KEY______
VSB  - VISIBILITY IN MILES
WCI  - WIND CHILL INDEX
HX   - HEAT INDEX
$$
NNNN



USA.gov is the U.S. government's official web portal to all federal, state and local government web resources and services.